LRC652 MGGT-KJFK

Flight info

Callsign LRC652
Flight time N/A
Altitude 33000
Route TIKIS2B TIKIS UG765 CZM UB881 CUN DCT ROTGI UM219 MYDIA M219 CIGAR/N0462F350 M215 KNOST Q109 CAMJO DCT ENEME DCT VIYAP Q87 JROSS Q135 RREGG Q117 SAWED DCT KALDA Q108 SIE CAMRN5
Aircraft A320/M-SDE3FGHIRWY/LB1

Departure

Time N/A
Airport La Aurora International Airport (MGGT)

Arrival

Time 2026-04-30 05:37
Airport John F. Kennedy International Airport (KJFK)
Time Latitude Longitude Altitude Speed Heading
2026-04-30 04:03 31.39452 -81.35651 32830 ft 459 kts 14°
2026-04-30 04:03 31.45311 -81.32573 32899 ft 461 kts 15°
2026-04-30 04:04 31.51193 -81.29427 32906 ft 461 kts 15°
2026-04-30 04:04 31.57015 -81.26273 32902 ft 463 kts 15°
2026-04-30 04:05 31.62860 -81.23097 32904 ft 463 kts 15°
2026-04-30 04:05 31.68723 -81.19907 32934 ft 466 kts 15°
2026-04-30 04:06 31.71684 -81.18285 33167 ft 464 kts 15°
2026-04-30 04:06 31.74637 -81.16663 33392 ft 463 kts 15°
2026-04-30 04:06 31.77556 -81.15063 33607 ft 463 kts 15°
2026-04-30 04:06 31.80459 -81.13475 33787 ft 463 kts 15°
2026-04-30 04:07 31.83371 -81.11881 33968 ft 463 kts 15°
2026-04-30 04:07 31.86322 -81.10263 34167 ft 463 kts 15°
2026-04-30 04:07 31.89240 -81.08665 34379 ft 463 kts 15°
2026-04-30 04:08 31.95058 -81.05470 34800 ft 460 kts 15°
2026-04-30 04:08 32.00844 -81.02286 34905 ft 457 kts 15°
2026-04-30 04:09 32.06596 -80.99068 34905 ft 458 kts 15°
2026-04-30 04:09 32.12386 -80.95827 34911 ft 462 kts 15°
2026-04-30 04:10 32.18191 -80.92570 34903 ft 462 kts 15°
2026-04-30 04:10 32.23954 -80.89335 34912 ft 464 kts 15°
2026-04-30 04:11 32.29758 -80.86074 34910 ft 462 kts 15°
2026-04-30 04:11 32.35601 -80.82789 34907 ft 463 kts 15°
2026-04-30 04:12 32.41437 -80.79501 34912 ft 466 kts 15°
2026-04-30 04:12 32.47272 -80.76211 34913 ft 467 kts 15°
2026-04-30 04:13 32.53173 -80.72882 34899 ft 471 kts 15°
2026-04-30 04:13 32.59067 -80.69544 34902 ft 469 kts 15°
2026-04-30 04:14 32.64924 -80.66039 34895 ft 474 kts 19°
2026-04-30 04:14 32.70530 -80.61665 34897 ft 489 kts 27°
2026-04-30 04:15 32.75703 -80.56353 34894 ft 501 kts 35°
2026-04-30 04:15 32.80422 -80.50214 34888 ft 505 kts 40°
2026-04-30 04:16 32.85003 -80.43925 34891 ft 503 kts 40°
2026-04-30 04:16 32.89605 -80.37640 34885 ft 507 kts 40°
2026-04-30 04:17 32.94220 -80.31346 34884 ft 507 kts 40°
2026-04-30 04:17 32.98867 -80.25019 34887 ft 508 kts 40°
2026-04-30 04:18 33.03487 -80.18715 34887 ft 506 kts 40°
2026-04-30 04:18 33.08135 -80.12363 34886 ft 509 kts 40°
2026-04-30 04:19 33.12774 -80.06004 34887 ft 506 kts 40°
2026-04-30 04:19 33.17405 -79.99658 34885 ft 507 kts 40°
2026-04-30 04:20 33.22016 -79.93323 34889 ft 506 kts 40°
2026-04-30 04:20 33.26667 -79.86929 34883 ft 509 kts 40°
2026-04-30 04:21 33.31276 -79.80572 34879 ft 507 kts 40°
2026-04-30 04:21 33.35910 -79.74175 34868 ft 509 kts 40°
2026-04-30 04:22 33.40522 -79.67783 34868 ft 510 kts 40°
2026-04-30 04:22 33.45162 -79.61350 34861 ft 513 kts 40°
2026-04-30 04:23 33.49830 -79.54864 34859 ft 514 kts 40°
2026-04-30 04:23 33.54472 -79.48408 34856 ft 515 kts 40°
2026-04-30 04:24 33.59149 -79.41882 34858 ft 513 kts 39°
2026-04-30 04:24 33.63771 -79.35430 34859 ft 513 kts 39°
2026-04-30 04:25 33.68411 -79.28944 34855 ft 513 kts 40°
2026-04-30 04:25 33.73038 -79.22462 34860 ft 514 kts 40°
2026-04-30 04:26 33.77712 -79.15904 34864 ft 514 kts 40°
2026-04-30 04:26 33.82355 -79.09382 34868 ft 516 kts 40°
2026-04-30 04:27 33.86997 -79.02853 34869 ft 517 kts 40°
2026-04-30 04:27 33.91668 -78.96265 34866 ft 516 kts 39°
2026-04-30 04:28 33.96293 -78.89735 34858 ft 516 kts 40°
2026-04-30 04:28 34.00987 -78.83099 34859 ft 520 kts 39°
2026-04-30 04:29 34.05648 -78.76485 34856 ft 518 kts 39°
2026-04-30 04:29 34.10296 -78.69888 34855 ft 519 kts 39°
2026-04-30 04:30 34.14971 -78.63236 34865 ft 517 kts 39°
2026-04-30 04:30 34.19613 -78.56621 34864 ft 517 kts 39°
2026-04-30 04:31 34.24268 -78.50105 34861 ft 513 kts 36°
2026-04-30 04:31 34.29357 -78.44153 34858 ft 504 kts 30°
2026-04-30 04:32 34.34615 -78.38570 34855 ft 503 kts 30°
2026-04-30 04:32 34.39869 -78.32997 34854 ft 506 kts 30°
2026-04-30 04:33 34.45134 -78.27373 34858 ft 505 kts 31°
2026-04-30 04:33 34.50399 -78.21726 34859 ft 507 kts 31°
2026-04-30 04:34 34.55671 -78.16067 34860 ft 509 kts 31°
2026-04-30 04:34 34.60949 -78.10370 34865 ft 507 kts 30°
2026-04-30 04:35 34.66205 -78.04703 34860 ft 507 kts 31°
2026-04-30 04:35 34.71455 -77.99036 34866 ft 508 kts 31°
2026-04-30 04:36 34.76739 -77.93318 34860 ft 509 kts 31°
2026-04-30 04:36 34.82018 -77.87604 34864 ft 509 kts 31°
2026-04-30 04:37 34.87305 -77.81869 34866 ft 509 kts 30°
2026-04-30 04:37 34.92636 -77.76327 34863 ft 508 kts 29°
2026-04-30 04:38 34.98046 -77.70769 34860 ft 509 kts 29°
2026-04-30 04:38 35.03429 -77.65188 34853 ft 508 kts 29°
2026-04-30 04:39 35.08828 -77.59580 34848 ft 512 kts 30°
2026-04-30 04:39 35.14350 -77.54153 34848 ft 501 kts 24°
2026-04-30 04:40 35.20087 -77.49598 34844 ft 494 kts 19°
2026-04-30 04:40 35.25986 -77.45230 34842 ft 493 kts 19°
2026-04-30 04:41 35.31854 -77.40871 34842 ft 496 kts 19°
2026-04-30 04:41 35.37743 -77.36463 34837 ft 497 kts 19°
2026-04-30 04:42 35.43593 -77.32072 34836 ft 497 kts 20°
2026-04-30 04:42 35.49484 -77.27641 34834 ft 498 kts 20°
2026-04-30 04:43 35.55395 -77.23183 34840 ft 497 kts 20°
2026-04-30 04:43 35.61296 -77.18739 34843 ft 500 kts 20°
2026-04-30 04:44 35.67207 -77.14266 34847 ft 500 kts 20°
2026-04-30 04:44 35.73089 -77.09815 34842 ft 499 kts 20°
2026-04-30 04:45 35.79020 -77.05330 34846 ft 503 kts 20°
2026-04-30 04:45 35.84971 -77.00822 34839 ft 503 kts 20°
2026-04-30 04:46 35.90947 -76.96290 34837 ft 500 kts 19°
2026-04-30 04:46 35.96998 -76.92141 34831 ft 498 kts 16°
2026-04-30 04:47 36.03051 -76.88120 34821 ft 496 kts 16°
2026-04-30 04:47 36.09182 -76.84045 34816 ft 496 kts 16°
2026-04-30 04:48 36.15256 -76.80005 34812 ft 497 kts 16°
2026-04-30 04:48 36.21348 -76.75935 34820 ft 496 kts 16°
2026-04-30 04:49 36.27434 -76.71854 34821 ft 498 kts 16°
2026-04-30 04:49 36.33532 -76.67759 34827 ft 496 kts 16°
2026-04-30 04:50 36.39579 -76.63690 34825 ft 496 kts 16°
2026-04-30 04:50 36.45631 -76.59615 34823 ft 497 kts 16°
2026-04-30 04:51 36.51727 -76.55499 34827 ft 497 kts 16°
2026-04-30 04:51 36.57770 -76.51409 34837 ft 498 kts 16°
2026-04-30 04:52 36.63835 -76.47304 34839 ft 498 kts 16°
2026-04-30 04:52 36.69937 -76.43159 34832 ft 497 kts 16°
2026-04-30 04:53 36.75973 -76.39056 34834 ft 498 kts 17°
2026-04-30 04:53 36.82057 -76.34912 34838 ft 497 kts 17°
2026-04-30 04:54 36.88141 -76.30763 34836 ft 498 kts 17°
2026-04-30 04:54 36.94228 -76.26603 34832 ft 500 kts 17°
2026-04-30 04:55 37.00332 -76.22418 34834 ft 499 kts 17°
2026-04-30 04:55 37.06394 -76.18256 34829 ft 498 kts 17°
2026-04-30 04:56 37.12474 -76.14077 34830 ft 499 kts 17°
2026-04-30 04:56 37.18610 -76.09856 34828 ft 499 kts 18°
2026-04-30 04:57 37.24706 -76.05653 34816 ft 502 kts 18°
2026-04-30 04:57 37.30807 -76.01430 34808 ft 500 kts 18°
2026-04-30 04:58 37.36890 -75.97223 34801 ft 498 kts 18°
2026-04-30 04:58 37.42979 -75.93003 34806 ft 499 kts 18°
2026-04-30 04:59 37.49093 -75.88753 34805 ft 497 kts 18°
2026-04-30 04:59 37.55124 -75.84518 34812 ft 499 kts 19°
2026-04-30 05:00 37.61088 -75.80049 34813 ft 501 kts 21°
2026-04-30 05:00 37.67083 -75.75512 34817 ft 502 kts 20°
2026-04-30 05:01 37.73105 -75.70980 34812 ft 502 kts 20°
2026-04-30 05:01 37.79181 -75.66841 34818 ft 495 kts 16°
2026-04-30 05:02 37.85322 -75.62898 34816 ft 493 kts 17°
2026-04-30 05:02 37.91416 -75.58944 34813 ft 493 kts 17°
2026-04-30 05:03 37.97546 -75.54936 34813 ft 495 kts 17°
2026-04-30 05:03 38.03643 -75.50925 34731 ft 495 kts 17°
2026-04-30 05:04 38.09764 -75.46886 34793 ft 495 kts 17°
2026-04-30 05:04 38.15913 -75.42823 34802 ft 495 kts 17°
2026-04-30 05:05 38.21967 -75.38816 34807 ft 494 kts 17°
2026-04-30 05:05 38.28099 -75.34748 34812 ft 493 kts 18°
2026-04-30 05:06 38.37270 -75.28659 34818 ft 495 kts 18°
2026-04-30 05:06 38.43393 -75.24580 34811 ft 495 kts 18°
2026-04-30 05:07 38.49466 -75.20522 34815 ft 494 kts 18°
2026-04-30 05:07 38.55553 -75.16457 34811 ft 495 kts 18°
2026-04-30 05:08 38.61641 -75.12376 34811 ft 493 kts 18°
2026-04-30 05:08 38.67740 -75.08284 34811 ft 493 kts 18°
2026-04-30 05:09 38.73798 -75.04211 34811 ft 494 kts 19°
2026-04-30 05:09 38.79919 -75.00085 34811 ft 493 kts 19°
2026-04-30 05:10 38.85978 -74.95994 34819 ft 493 kts 19°
2026-04-30 05:10 38.90295 -74.93075 34824 ft 493 kts 19°
2026-04-30 05:11 38.92265 -74.91742 34825 ft 492 kts 19°
2026-04-30 05:11 38.98351 -74.87620 34833 ft 494 kts 19°
2026-04-30 05:12 39.04413 -74.83499 34840 ft 494 kts 20°
2026-04-30 05:12 39.10289 -74.78869 34845 ft 503 kts 27°
2026-04-30 05:13 39.15855 -74.73294 34837 ft 510 kts 32°
2026-04-30 05:13 39.21244 -74.67418 34840 ft 508 kts 33°
2026-04-30 05:14 39.26617 -74.61558 34843 ft 509 kts 33°
2026-04-30 05:14 39.32054 -74.55661 34847 ft 508 kts 33°
2026-04-30 05:15 39.37441 -74.49805 34848 ft 508 kts 34°
2026-04-30 05:15 39.42877 -74.43888 34057 ft 514 kts 34°
2026-04-30 05:16 39.45587 -74.40930 33226 ft 516 kts 34°
2026-04-30 05:16 39.48343 -74.37927 32322 ft 516 kts 35°
2026-04-30 05:16 39.51015 -74.35004 31433 ft 506 kts 36°
2026-04-30 05:16 39.53690 -74.32079 30438 ft 494 kts 37°
2026-04-30 05:17 39.56296 -74.29217 29797 ft 494 kts 37°
2026-04-30 05:17 39.58920 -74.26333 29342 ft 497 kts 38°
2026-04-30 05:17 39.61548 -74.23447 28895 ft 504 kts 38°
2026-04-30 05:17 39.64245 -74.20483 27744 ft 507 kts 38°
2026-04-30 05:18 39.66884 -74.17574 26445 ft 503 kts 38°
2026-04-30 05:18 39.69526 -74.14659 25354 ft 495 kts 39°
2026-04-30 05:18 39.72147 -74.11767 24718 ft 489 kts 39°
2026-04-30 05:18 39.74739 -74.08906 24087 ft 485 kts 39°
2026-04-30 05:19 39.77282 -74.06095 23508 ft 481 kts 39°
2026-04-30 05:19 39.79833 -74.03273 22950 ft 477 kts 39°
2026-04-30 05:19 39.82365 -74.00576 22477 ft 473 kts 36°
2026-04-30 05:19 39.85022 -73.98100 22110 ft 469 kts 32°
2026-04-30 05:20 39.87797 -73.95883 21680 ft 464 kts 27°
2026-04-30 05:20 39.90625 -73.93859 21204 ft 459 kts 26°
2026-04-30 05:20 39.93418 -73.91917 20654 ft 456 kts 26°
2026-04-30 05:20 39.96228 -73.89959 20087 ft 451 kts 26°
2026-04-30 05:21 39.98962 -73.88029 19537 ft 447 kts 27°
2026-04-30 05:21 40.01729 -73.86189 18918 ft 444 kts 23°
2026-04-30 05:21 40.04510 -73.84545 18241 ft 441 kts 22°
2026-04-30 05:21 40.07327 -73.82918 17594 ft 438 kts 22°
2026-04-30 05:22 40.10089 -73.81314 17013 ft 433 kts 22°
2026-04-30 05:22 40.12822 -73.79710 16454 ft 428 kts 23°
2026-04-30 05:22 40.15524 -73.78110 15909 ft 422 kts 23°
2026-04-30 05:22 40.18188 -73.76525 15357 ft 418 kts 23°
2026-04-30 05:23 40.20798 -73.74964 14788 ft 412 kts 23°
2026-04-30 05:23 40.23389 -73.73417 14207 ft 408 kts 23°
2026-04-30 05:23 40.25945 -73.71892 13627 ft 402 kts 23°
2026-04-30 05:23 40.28499 -73.70364 13044 ft 398 kts 23°
2026-04-30 05:24 40.31002 -73.68866 12467 ft 396 kts 24°
2026-04-30 05:24 40.33494 -73.67368 11895 ft 395 kts 24°
2026-04-30 05:24 40.35982 -73.65877 11378 ft 390 kts 24°
2026-04-30 05:24 40.38405 -73.64418 11066 ft 380 kts 24°
2026-04-30 05:25 40.40753 -73.62997 10842 ft 358 kts 24°
2026-04-30 05:25 40.42944 -73.61661 10648 ft 335 kts 23°
2026-04-30 05:25 40.45002 -73.60425 10473 ft 314 kts 24°
2026-04-30 05:25 40.46948 -73.59251 10337 ft 302 kts 24°
2026-04-30 05:26 40.48857 -73.58097 10203 ft 300 kts 23°
2026-04-30 05:26 40.50779 -73.56937 10077 ft 299 kts 24°
2026-04-30 05:26 40.52672 -73.55803 9922 ft 299 kts 24°
2026-04-30 05:26 40.54572 -73.54654 9566 ft 299 kts 24°
2026-04-30 05:27 40.56467 -73.53501 9221 ft 296 kts 24°
2026-04-30 05:27 40.58310 -73.52382 8890 ft 292 kts 24°
2026-04-30 05:27 40.60171 -73.51254 8560 ft 289 kts 24°
2026-04-30 05:27 40.61978 -73.50157 8237 ft 285 kts 24°
2026-04-30 05:28 40.63776 -73.49070 7916 ft 282 kts 24°
2026-04-30 05:28 40.65572 -73.47980 7601 ft 281 kts 24°
2026-04-30 05:28 40.67345 -73.46905 7286 ft 279 kts 25°
2026-04-30 05:28 40.69096 -73.45875 6952 ft 272 kts 17°
2026-04-30 05:29 40.70944 -73.45630 6612 ft 266 kts 348°
2026-04-30 05:29 40.72722 -73.46233 6412 ft 256 kts 339°
2026-04-30 05:29 40.73829 -73.46725 6294 ft 250 kts 337°
2026-04-30 05:29 40.75654 -73.48345 6045 ft 230 kts 299°
2026-04-30 05:30 40.76310 -73.50162 5845 ft 218 kts 285°
2026-04-30 05:30 40.76808 -73.52039 5518 ft 214 kts 283°
2026-04-30 05:30 40.77274 -73.53886 5057 ft 213 kts 284°
2026-04-30 05:30 40.77743 -73.55743 4593 ft 214 kts 284°
2026-04-30 05:31 40.78229 -73.57587 4182 ft 211 kts 283°
2026-04-30 05:31 40.78694 -73.59330 4005 ft 193 kts 285°
2026-04-30 05:31 40.79110 -73.60964 3802 ft 182 kts 284°
2026-04-30 05:31 40.79364 -73.62534 3566 ft 171 kts 258°
2026-04-30 05:32 40.78883 -73.63874 3300 ft 157 kts 224°
2026-04-30 05:32 40.78088 -73.64768 3096 ft 148 kts 212°
2026-04-30 05:32 40.77236 -73.65524 2913 ft 149 kts 210°
2026-04-30 05:32 40.76344 -73.66256 2725 ft 149 kts 209°
2026-04-30 05:33 40.75453 -73.66967 2535 ft 149 kts 208°
2026-04-30 05:33 40.74551 -73.67673 2337 ft 148 kts 208°
2026-04-30 05:33 40.73675 -73.68356 2137 ft 146 kts 207°
2026-04-30 05:33 40.72795 -73.69038 1971 ft 144 kts 208°
2026-04-30 05:34 40.71938 -73.69702 1748 ft 139 kts 207°
2026-04-30 05:34 40.71103 -73.70353 1544 ft 138 kts 208°
2026-04-30 05:34 40.70274 -73.71003 1347 ft 137 kts 207°
2026-04-30 05:34 40.69458 -73.71640 1158 ft 137 kts 207°
2026-04-30 05:35 40.68627 -73.72282 976 ft 136 kts 208°
2026-04-30 05:35 40.67813 -73.72918 790 ft 136 kts 208°
2026-04-30 05:35 40.67005 -73.73550 612 ft 135 kts 208°
2026-04-30 05:35 40.66191 -73.74185 430 ft 135 kts 208°
2026-04-30 05:36 40.65374 -73.74817 248 ft 134 kts 208°
2026-04-30 05:36 40.64570 -73.75449 79 ft 134 kts 208°
2026-04-30 05:36 40.63806 -73.76049 21 ft 109 kts 210°
2026-04-30 05:36 40.63279 -73.76459 21 ft 72 kts 211°
2026-04-30 05:37 40.63009 -73.76722 21 ft 29 kts 228°
2026-04-30 05:37 40.62930 -73.76895 21 ft 16 kts 252°
2026-04-30 05:37 40.62957 -73.77033 21 ft 16 kts 302°
2026-04-30 05:37 40.63015 -73.77161 21 ft 16 kts 302°
2026-04-30 05:38 40.63074 -73.77290 21 ft 16 kts 300°
2026-04-30 05:38 40.63134 -73.77422 21 ft 17 kts 300°
2026-04-30 05:38 40.63195 -73.77559 21 ft 17 kts 301°
2026-04-30 05:38 40.63258 -73.77696 21 ft 17 kts 300°
2026-04-30 05:39 40.63320 -73.77833 21 ft 16 kts 301°
2026-04-30 05:39 40.63377 -73.77921 21 ft 11 kts 353°
2026-04-30 05:39 40.63443 -73.77877 21 ft 9 kts 32°
2026-04-30 05:39 40.63504 -73.77827 21 ft 10 kts 31°
2026-04-30 05:40 40.63573 -73.77773 21 ft 12 kts 31°
2026-04-30 05:40 40.63648 -73.77715 21 ft 13 kts 31°
2026-04-30 05:40 40.63726 -73.77654 21 ft 11 kts 30°
2026-04-30 05:40 40.63799 -73.77598 21 ft 11 kts 30°
2026-04-30 05:41 40.63830 -73.77573 21 ft 11 kts 31°
2026-04-30 05:41 40.63913 -73.77508 21 ft 10 kts 30°
2026-04-30 05:41 40.64001 -73.77438 21 ft 10 kts 32°
2026-04-30 05:41 40.64066 -73.77425 21 ft 11 kts 318°
2026-04-30 05:42 40.64119 -73.77500 21 ft 11 kts 320°
2026-04-30 05:42 40.64183 -73.77554 21 ft 9 kts 331°
2026-04-30 05:42 40.64248 -73.77601 21 ft 11 kts 331°
2026-04-30 05:42 40.64320 -73.77653 21 ft 12 kts 331°
2026-04-30 05:43 40.64391 -73.77716 21 ft 11 kts 313°
2026-04-30 05:43 40.64434 -73.77805 21 ft 9 kts 294°
2026-04-30 05:43 40.64414 -73.77865 21 ft 6 kts 230°
2026-04-30 05:43 40.64394 -73.77907 21 ft 3 kts 240°
2026-04-30 05:44 40.64387 -73.77922 21 ft 0 kts 239°
2026-04-30 05:44 40.64386 -73.77926 21 ft 0 kts 239°